sat.trackr.live / text

‹ back to catalog

2026-052A

NORAD 68198 · 2026-052A

PAYLOAD ACTIVE UNKNOWN

§ Identity

Operator
Country
PRC
Launch date
2026-03-16
Launch site
JSC
Launch vehicle
Mass (kg)
RCS (m²)

External: N2YO · Heavens-Above · Gunter

§ Orbital elements

Epoch: 2026-05-25T04:26:06.078048Z

Period
95.32 min
Inclination
97.5331°
Eccentricity
0.0013940
Mean motion
15.10627952 rev/d
Perigee alt
524.6 km
Apogee alt
543.9 km
Semi-major
6,912.4 km
B*
2.9097e-4
RAAN
220.3151°
Arg perigee
34.2433°
Mean anomaly
325.9693°
Rev number
1,057

§ Raw data

2026-052A1 68198U 26052A   26145.18479257  .00004756  00000+0  29097-3 0  99992 68198  97.5331 220.3151 0013940  34.2433 325.9693 15.10627952 10570

JSON: /api/v1/satellites/68198 · /tle

For live sub-satellite position, see the globe view (requires WebGL).

§ Visibility from observer

Set your observer location to see the next 7 days of passes ≥ 10°. The values pass through the URL so the page stays shareable.

No JS? Fill the form by hand. The geolocation button needs JavaScript.